Location: Bothwell
(42.3833°S, 147.0000°E)
Time: 19:04:01
(UTC+11:00)

Gurwin Techsat 1B - Pass Details

Date: 26 September 2022
Orbit: 811 x 814 km, 98.8° (Epoch: 26 November)

Event Time Altitude Azimuth Distance (km) Brightness Sun altitude
Exits shadow 02:32:25 10° 204° (SSW) 2,400 11.2 -35.2°
Drops below altitude 10° 02:32:30 10° 204° (SSW) 2,433 11.2 -35.2°
Sets 02:34:56 0° 198° (SSW) 3,373 12.1 -34.8°
